Oakes, ND

1:18 PM CST on December 05, 2019 (GMT -0600)
Oakes

Weather History for K2D5 - September, 2019

Change the Weather History Date:

Wednesday, September 25, 2019

  Actual Average (KP67) Record (KP67)
Temperature  
Mean Temperature 56 °F -  
Max Temperature 64 °F 66 °F 82 °F (1997)
Min Temperature 46 °F 42 °F 39 °F (1996)
Degree Days  
Heating Degree Days 9    
Growing Degree Days 6 (Base 50)    
Moisture  
Dew Point 45 °F    
Average Humidity 71    
Maximum Humidity 100    
Minimum Humidity 37    
Precipitation  
Precipitation 0.00 in - - ()
Sea Level Pressure  
Sea Level Pressure 29.82 in    
Wind  
Wind Speed 14 mph (WNW)    
Max Wind Speed 25 mph    
Max Gust Speed 36 mph    
Visibility 10 miles    
Events      
Averages and records for this station are not official NWS values.
T = Trace of Precipitation, MM = Missing Value Source: NWS Daily Summary

Daily Weather History Graph

Daily Weather History Graph

Search for Another Location

Airport or City:

Astronomy

Sep. 25, 2019 Rise Set
Actual Time 7:22 AM CDT 7:24 PM CDT
Civil Twilight 6:52 AM CDT 7:54 PM CDT
Nautical Twilight 6:17 AM CDT 8:29 PM CDT
Astronomical Twilight 5:41 AM CDT 9:04 PM CDT
Moon 3:00 AM CDT (9/25) 6:12 PM CDT (9/25)
Length of Visible Light 13h 01m
Length of Day
12h 01m
Waning Crescent, 14% of the Moon is Illuminated
Sep 25
Waning Crescent
Sep 28
New
Oct 5
First Quarter
Oct 13
Full
Oct 21
Last Quarter

Hourly Weather History & Observations

Time (CDT) Temp. Windchill Dew Point Humidity Pressure Visibility Wind Dir Wind Speed Gust Speed Precip Events Conditions
12:15 AM 53.6 °F - 51.8 °F 94% 29.69 in 10.0 mi WNW 12.7 mph - N/A   Clear
12:35 AM 53.6 °F - 51.8 °F 94% 29.69 in 10.0 mi WNW 11.5 mph 17.3 mph N/A   Clear
12:55 AM 53.6 °F - 51.8 °F 94% 29.69 in 10.0 mi WNW 12.7 mph - N/A   Clear
1:15 AM 51.8 °F - 51.8 °F 100% 29.70 in 10.0 mi WNW 11.5 mph - N/A   Clear
1:35 AM 51.8 °F - 50.0 °F 94% 29.71 in 10.0 mi WNW 13.8 mph - N/A   Clear
1:55 AM 51.8 °F - 50.0 °F 94% 29.72 in 10.0 mi WNW 11.5 mph - N/A   Clear
2:15 AM 51.8 °F - 50.0 °F 94% 29.73 in 10.0 mi WNW 9.2 mph - N/A   Clear
2:35 AM 50.0 °F - 50.0 °F 100% 29.73 in 10.0 mi WNW 10.4 mph - N/A   Clear
2:55 AM 50.0 °F - 48.2 °F 94% 29.74 in 10.0 mi WNW 9.2 mph - N/A   Clear
3:15 AM 50.0 °F - 50.0 °F 100% 29.74 in 10.0 mi WNW 11.5 mph - N/A   Clear
3:35 AM 50.0 °F - 50.0 °F 100% 29.74 in 10.0 mi WNW 10.4 mph - N/A   Clear
3:55 AM 50.0 °F - 48.2 °F 94% 29.75 in 10.0 mi WNW 10.4 mph - N/A   Clear
4:15 AM 50.0 °F - 48.2 °F 94% 29.76 in 10.0 mi West 11.5 mph - N/A   Clear
4:35 AM 50.0 °F - 48.2 °F 94% 29.75 in 10.0 mi West 8.1 mph - N/A   Clear
4:55 AM 48.2 °F - 48.2 °F 100% 29.76 in 10.0 mi West 6.9 mph - N/A   Clear
5:15 AM 50.0 °F - 50.0 °F 100% 29.76 in 10.0 mi West 11.5 mph - N/A   Clear
5:35 AM 50.0 °F - 48.2 °F 94% 29.77 in 10.0 mi WNW 11.5 mph - N/A   Clear
5:55 AM 50.0 °F - 48.2 °F 94% 29.77 in 10.0 mi WNW 12.7 mph - N/A   Partly Cloudy
6:15 AM 50.0 °F - 48.2 °F 94% 29.78 in 10.0 mi WNW 12.7 mph - N/A   Partly Cloudy
6:35 AM 50.0 °F - 48.2 °F 94% 29.78 in 10.0 mi WNW 10.4 mph - N/A   Partly Cloudy
6:55 AM 48.2 °F - 48.2 °F 100% 29.79 in 10.0 mi West 12.7 mph - N/A   Clear
7:15 AM 48.2 °F - 48.2 °F 100% 29.80 in 10.0 mi West 10.4 mph - N/A   Clear
7:35 AM 48.2 °F - 48.2 °F 100% 29.80 in 10.0 mi West 10.4 mph - N/A   Clear
7:55 AM 48.2 °F - 48.2 °F 100% 29.80 in 10.0 mi WNW 11.5 mph - N/A   Clear
8:15 AM 50.0 °F - 46.4 °F 87% 29.80 in 10.0 mi WNW 13.8 mph - N/A   Clear
8:35 AM 51.8 °F - 46.4 °F 82% 29.80 in 10.0 mi West 15.0 mph - N/A   Clear
8:55 AM 51.8 °F - 46.4 °F 82% 29.81 in 10.0 mi WNW 18.4 mph - N/A   Clear
9:15 AM 53.6 °F - 46.4 °F 77% 29.82 in 10.0 mi West 16.1 mph 23.0 mph N/A   Clear
9:35 AM 55.4 °F - 46.4 °F 72% 29.83 in 10.0 mi West 17.3 mph 23.0 mph N/A   Clear
9:55 AM 55.4 °F - 46.4 °F 72% 29.83 in 10.0 mi WNW 16.1 mph 23.0 mph N/A   Clear
10:15 AM 57.2 °F - 46.4 °F 67% 29.83 in 10.0 mi WNW 20.7 mph - N/A   Clear
10:35 AM 57.2 °F - 44.6 °F 63% 29.83 in 10.0 mi West 17.3 mph 27.6 mph N/A   Clear
10:55 AM 59.0 °F - 44.6 °F 59% 29.83 in 10.0 mi WNW 23.0 mph - N/A   Clear
11:15 AM 60.8 °F - 44.6 °F 55% 29.83 in 10.0 mi WNW 20.7 mph 31.1 mph N/A   Clear
11:35 AM 60.8 °F - 44.6 °F 55% 29.84 in 10.0 mi WNW 20.7 mph 28.8 mph N/A   Clear
11:55 AM 60.8 °F - 42.8 °F 52% 29.84 in 10.0 mi WNW 25.3 mph - N/A   Clear
12:15 PM 60.8 °F - 42.8 °F 52% 29.84 in 10.0 mi WNW 24.2 mph 31.1 mph N/A   Partly Cloudy
12:35 PM 60.8 °F - 42.8 °F 52% 29.84 in 10.0 mi NW 23.0 mph 33.4 mph N/A   Partly Cloudy
12:55 PM 60.8 °F - 41.0 °F 48% 29.84 in 10.0 mi NW 20.7 mph 29.9 mph N/A   Scattered Clouds
1:15 PM 60.8 °F - 41.0 °F 48% 29.84 in 10.0 mi WNW 19.6 mph 32.2 mph N/A   Scattered Clouds
1:35 PM 62.6 °F - 41.0 °F 45% 29.84 in 10.0 mi WNW 20.7 mph 32.2 mph N/A   Partly Cloudy
1:55 PM 62.6 °F - 41.0 °F 45% 29.84 in 10.0 mi WNW 24.2 mph 29.9 mph N/A   Scattered Clouds
2:15 PM 62.6 °F - 41.0 °F 45% 29.83 in 10.0 mi NW 20.7 mph 31.1 mph N/A   Mostly Cloudy
2:35 PM 62.6 °F - 39.2 °F 42% 29.83 in 10.0 mi NW 19.6 mph 28.8 mph N/A   Mostly Cloudy
2:55 PM 62.6 °F - 39.2 °F 42% 29.83 in 10.0 mi WNW 24.2 mph 34.5 mph N/A   Partly Cloudy
3:15 PM 62.6 °F - 41.0 °F 45% 29.84 in 10.0 mi NW 21.9 mph 27.6 mph N/A   Partly Cloudy
3:35 PM 64.4 °F - 39.2 °F 40% 29.84 in 10.0 mi WNW 21.9 mph 32.2 mph N/A   Mostly Cloudy
3:55 PM 64.4 °F - 37.4 °F 37% 29.83 in 10.0 mi WNW 21.9 mph 29.9 mph N/A   Partly Cloudy
4:15 PM 64.4 °F - 37.4 °F 37% 29.84 in 10.0 mi WNW 23.0 mph - N/A   Partly Cloudy
4:35 PM 62.6 °F - 37.4 °F 39% 29.84 in 10.0 mi WNW 20.7 mph 28.8 mph N/A   Clear
4:55 PM 62.6 °F - 37.4 °F 39% 29.84 in 10.0 mi NW 21.9 mph 28.8 mph N/A   Clear
5:15 PM 62.6 °F - 37.4 °F 39% 29.84 in 10.0 mi NW 19.6 mph 31.1 mph N/A   Partly Cloudy
5:35 PM 62.6 °F - 37.4 °F 39% 29.84 in 10.0 mi WNW 19.6 mph 26.5 mph N/A   Partly Cloudy
5:55 PM 60.8 °F - 37.4 °F 42% 29.85 in 10.0 mi WNW 19.6 mph - N/A   Clear
6:15 PM 60.8 °F - 39.2 °F 45% 29.85 in 10.0 mi WNW 18.4 mph 25.3 mph N/A   Clear
6:35 PM 60.8 °F - 39.2 °F 45% 29.86 in 10.0 mi WNW 11.5 mph 17.3 mph N/A   Clear
6:55 PM 59.0 °F - 41.0 °F 51% 29.86 in 10.0 mi WNW 10.4 mph - N/A   Clear
7:15 PM 55.4 °F - 41.0 °F 58% 29.86 in 10.0 mi WNW 8.1 mph - N/A   Clear
7:35 PM 53.6 °F - 41.0 °F 62% 29.87 in 10.0 mi West 6.9 mph - N/A   Clear
7:55 PM 53.6 °F - 41.0 °F 62% 29.88 in 10.0 mi West 5.8 mph - N/A   Clear
8:15 PM 51.8 °F - 42.8 °F 71% 29.89 in 10.0 mi West 6.9 mph - N/A   Clear
8:35 PM 53.6 °F - 42.8 °F 67% 29.89 in 10.0 mi West 9.2 mph - N/A   Clear
8:55 PM 53.6 °F - 42.8 °F 67% 29.90 in 10.0 mi West 11.5 mph - N/A   Partly Cloudy
9:15 PM 55.4 °F - 42.8 °F 63% 29.91 in 10.0 mi West 25.3 mph 35.7 mph N/A   Mostly Cloudy
9:35 PM 53.6 °F - 42.8 °F 67% 29.92 in 10.0 mi WNW 15.0 mph 21.9 mph N/A   Mostly Cloudy
9:55 PM 51.8 °F - 42.8 °F 71% 29.92 in 10.0 mi WNW 8.1 mph 16.1 mph N/A   Partly Cloudy
10:15 PM 51.8 °F - 42.8 °F 71% 29.91 in 10.0 mi West 10.4 mph - N/A   Clear
10:35 PM 50.0 °F - 44.6 °F 82% 29.92 in 10.0 mi West 12.7 mph - N/A   Clear
10:55 PM 50.0 °F - 44.6 °F 82% 29.92 in 10.0 mi West 9.2 mph - N/A   Clear
11:15 PM 48.2 °F - 44.6 °F 87% 29.93 in 10.0 mi West 8.1 mph - N/A   Clear
11:35 PM 48.2 °F - 44.6 °F 87% 29.93 in 10.0 mi WNW 6.9 mph - N/A   Clear
11:55 PM 46.4 °F 42.9 °F 44.6 °F 93% 29.93 in 10.0 mi West 6.9 mph - N/A   Clear